Weather observations for the past three days for
Kinana / Bob Baker Me
Metric (Imperial)
Date Time (akdt) Wind (kph) Vis. (km) Weather Sky Cond. Temperature (ºC) Relative Humidity Wind Chill (°C) Heat Index (°C) Pressure Precipitation (cm)
Air Dwpt 6 hour altimeter (cm) sea level (mb) 1 hr 3 hr 6 hr
Max. Min.
16 02:56 Calm 16.09 Fair CLR 9.4 6.7 83% 76.81 1024.1
16 01:56 Calm 16.09 Fair CLR 10 6.7 80% 76.78 1024.0
16 00:56 W 13 16.09 Fair CLR 12.2 6.1 67% 76.78 1023.8
15 23:56 W 13 16.09 Fair CLR 14.4 5.6 56% 76.76 1023.4
15 22:56 SW 11 16.09 Fair CLR 16.1 5 48% 76.76 1023.4
15 21:56 W 15 16.09 Fair CLR 17.8 3.3 18.9 17.2 38% 76.76 1023.4
15 20:56 SW 13 16.09 Fair CLR 17.8 4.4 41% 76.76 1023.6
15 19:56 W 19 16.09 Fair CLR 18.3 4.4 40% 76.78 1023.7
15 18:56 W 22 G 33 16.09 Fair CLR 18.3 5.6 43% 76.78 1023.8
15 17:56 SW 22 G 30 6.44 Fair with Haze CLR 18.3 5.6 43% 76.81 1024.1
15 16:56 SW 19 G 30 16.09 Fair CLR 18.3 6.1 45% 76.81 1024.2
15 15:56 SW 17 G 30 16.09 Fair CLR 17.2 5.6 17.2 10.6 47% 76.84 1024.5
15 14:56 SW 17 16.09 Fair CLR 16.7 5 46% 76.86 1024.7
15 13:56 W 15 16.09 Fair CLR 15.6 5 50% 76.86 1025.0
15 12:56 Vrbl 9 16.09 Fair CLR 14.4 4.4 51% 76.89 1025.3
15 11:56 Vrbl 7 16.09 Fair CLR 13.3 3.9 53% 76.91 1025.7
15 10:56 Vrbl 6 16.09 Fair CLR 12.8 3.9 55% 76.94 1026.0
15 09:56 Calm 16.09 Fair CLR 10.6 4.4 10.6 4.4 66% 76.96 1026.3
15 08:56 NW 6 16.09 Fair CLR 7.8 3.3 73% 76.96 1026.3
15 07:56 N 9 16.09 Fair CLR 7.2 2.8 74% 6 76.96 1026.3
15 06:56 Calm 16.09 Fair CLR 6.1 3.3 82% 76.99 1026.4
15 05:56 Calm 16.09 Fair CLR 5.6 3.3 85% 76.96 1026.3
15 04:56 Calm 16.09 Fair CLR 6.1 4.4 89% 76.96 1026.1
15 03:56 NW 6 16.09 Fair CLR 6.1 2.8 11.7 5 80% 76.94 1025.9
15 02:56 N 9 16.09 Fair CLR 6.1 1.7 74% 4 76.94 1025.9
15 01:56 NW 7 16.09 Fair CLR 6.1 2.2 76% 5 76.94 1025.8
15 00:56 W 11 16.09 Fair CLR 8.3 2.8 69% 7 76.91 1025.5
14 23:56 SW 9 16.09 Fair CLR 10 2.8 61% 9 76.89 1025.3
14 22:56 SW 9 16.09 Fair CLR 10.6 2.2 56% 76.89 1025.3
14 21:56 W 17 16.09 Fair CLR 11.7 2.2 13.3 11.7 52% 76.89 1025.1
14 20:56 SW 15 16.09 Fair CLR 11.7 2.8 55% 76.86 1025.0
14 19:56 W 22 16.09 Fair CLR 12.2 2.8 53% 76.86 1025.0
14 18:56 W 19 G 28 16.09 Fair CLR 12.8 3.3 53% 76.86 1024.9
14 17:56 W 19 G 31 16.09 Fair CLR 12.8 3.9 55% 76.86 1024.8
14 16:56 W 24 16.09 A Few Clouds FEW038 13.3 3.9 53% 76.86 1024.9
14 15:56 SW 24 G 31 16.09 Partly Cloudy SCT036 12.8 4.4 13.3 9.4 57% 76.89 1025.1
14 14:56 SW 15 G 26 16.09 Mostly Cloudy BKN032 12.2 4.4 59% 76.89 1025.3
14 13:56 SW 7 16.09 Overcast OVC028 10 3.9 66% 9 76.91 1025.6
14 12:56 W 13 16.09 Overcast OVC024 10 3.9 66% 8 76.91 1025.5
14 11:56 W 9 16.09 Overcast OVC024 9.4 3.9 69% 8 76.91 1025.5
14 10:56 SW 13 16.09 Mostly Cloudy BKN024 10.6 4.4 66% 76.89 1025.3
14 09:56 W 17 14.48 Fair CLR 10 4.4 10 6.1 68% 8 76.89 1025.3
14 08:56 W 13 16.09 Fair CLR 8.9 4.4 74% 7 76.89 1025.1
14 07:56 SW 15 16.09 A Few Clouds FEW060 8.3 5 80% 6 76.86 1024.7
14 06:56 SW 7 16.09 Fair CLR 6.7 5 89% 6 76.84 1024.4
14 05:56 SW 7 16.09 Fair CLR 7.8 5 83% 7 76.81 1024.1
14 04:56 S 9 16.09 Fair CLR 7.2 5.6 90% 6 76.78 1023.7
14 03:56 Calm 16.09 Fair CLR 6.1 5.6 11.7 6.1 97% 76.76 1023.5
14 02:56 Calm 16.09 A Few Clouds FEW044 7.2 5.6 90% 76.76 1023.4
14 01:56 Calm 16.09 Fair CLR 8.3 5 80% 76.73 1023.3
14 00:56 SW 9 16.09 A Few Clouds FEW044 9.4 5 74% 8 76.73 1023.2
13 23:56 S 9 16.09 Fair CLR 10.6 5 69% 76.73 1023.2
13 22:56 SW 9 16.09 Fair CLR 11.1 5 66% 76.71 1023.0
13 21:56 SW 7 16.09 Fair CLR 11.7 5 12.2 8.9 64% 76.71 1022.8
13 20:56 Vrbl 6 16.09 Overcast OVC046 11.7 5.6 66% 76.73 1023.1
13 19:56 SW 15 16.09 Overcast OVC048 11.7 5.6 66% 76.73 1023.3
13 18:56 SW 15 16.09 Overcast OVC050 11.7 5.6 66% 76.73 1023.1
13 17:56 SW 13 16.09 Overcast OVC050 11.7 6.1 69% 76.73 1023.2
13 16:56 SW 15 16.09 Overcast FEW022 OVC050 12.2 6.1 67% 76.73 1023.2
13 15:56 SW 13 4.02 Overcast with Haze BKN040 OVC065 8.9 5 8.9 5.6 77% 7 76.76 1023.5
13 14:56 SW 13 9.66 Overcast with Haze OVC036 7.2 4.4 83% 5 76.76 1023.5
13 13:56 SW 13 16.09 Overcast OVC040 6.1 3.9 86% 4 76.73 1023.4
13 12:56 SW 13 16.09 Overcast OVC040 6.1 3.9 86% 4 76.73 1023.2
13 11:56 SW 13 G 26 16.09 Overcast OVC042 6.1 3.9 86% 4 76.73 1023.0
13 10:56 SW 13 16.09 Overcast FEW030 SCT038 OVC046 6.1 3.9 86% 4 76.71 1022.9
13 09:56 SW 13 16.09 Light Rain OVC047 6.1 3.3 6.7 4.4 82% 4 76.66 1022.3
13 08:56 W 17 16.09 Overcast BKN045 OVC065 6.7 3.3 79% 4 76.66 1022.0
13 07:56 SW 9 16.09 Mostly Cloudy BKN075 6.1 3.9 86% 4 76.61 1021.6
13 06:56 SW 13 16.09 Mostly Cloudy BKN070 BKN110 4.4 2.8 89% 2 76.61 1021.3
13 05:56 SW 11 16.09 Mostly Cloudy BKN100 4.4 2.8 89% 2 76.56 1020.9
13 04:56 SW 15 16.09 Partly Cloudy SCT080 4.4 2.8 89% 1 76.53 1020.5
13 03:56 SW 20 G 31 16.09 Fair CLR 4.4 3.3 17.2 4.4 93% 1 76.48 1019.8
Date Time (akdt) Wind (kph) Vis. (km) Weather Sky Cond. Air Dwpt Max. Min. Relative Humidity Wind Chill (°C) Heat Index (°C) altimeter (cm) sea level (mb) 1 hr 3 hr 6 hr
6 hour
Temperature (ºC) Pressure Precipitation (cm)